Overview Statistics Trail Chart Weather Telemetry Raw packets
 

This is the latest recevied weather packets stored in our database for station/object KD1KE. If no packets are shown the sender has not sent any weather packets the latest 10 day(s).

<< 1 2 3 4 5 6 7 >>
Time Temp. Humidity Pressure Rain* Wind** Luminosity Snow
1788549729 20.56° C 86% 1007.1 hPa 0 mm - - -
1788549184 20.56° C 86% 1007.2 hPa 0 mm - - -
1788549076 20.56° C 86% 1007.2 hPa 0 mm - - -
1788548644 20.56° C 86% 1007.1 hPa 0 mm - - -
1788548415 20.56° C 85% 1007.2 hPa 0 mm - - -
1788548104 21.11° C 86% 1007.1 hPa 0 mm - - -
1788547756 21.11° C 85% 1007.2 hPa 0 mm - - -
1788547565 21.11° C 85% 1007.2 hPa 0 mm - - -
1788547095 21.11° C 83% 1007.2 hPa 0 mm - - -
1788547024 21.11° C 83% 1007.2 hPa 0 mm - - -
1788546482 21.67° C 80% 1007.3 hPa 0 mm - - -
1788546435 21.67° C 80% 1007.4 hPa 0 mm - - -
1788545943 22.78° C 77% 1007.2 hPa 0 mm - - -
1788545776 23.33° C 77% 1007.4 hPa 0 mm - - -
1788545406 23.33° C 76% 1007.3 hPa 0 mm - - -
1788545116 23.89° C 77% 1007.2 hPa 0 mm - - -
1788544863 23.89° C 75% 1007.3 hPa 0 mm - - -
1788544455 23.89° C 72% 1007.2 hPa 0 mm - - -
1788544322 24.44° C 72% 1007.2 hPa 0 mm - - -
1788543783 24.44° C 73% 1007.3 hPa 0 mm - - -
1788543245 23.89° C 73% 1007.2 hPa 0 mm - - -
1788543136 23.89° C 73% 1007.3 hPa 0 mm - - -
1788542704 23.89° C 72% 1007.4 hPa 0 mm - - -
1788542475 23.89° C 75% 1007.4 hPa 0 mm - - -
1788542164 23.89° C 75% 1007.4 hPa 0 mm - - -

* Rain latest hour (hover to see other rain measurements)
** Current wind speed in m/s (hover to see current wind gust speed)